Regional Weather Roundup
Issued by NWS

Home | Current Version | Previous Version | Text Only | Print | Product List | Glossary Off
Versions: 1 2 3 4 5 6 7 8 9 10 11 12 13 14 15 16 17 18 19 20 21 22 23 24 25 26 27 28 29 30 31 32 33 34 35 36 37 38 39 40 41 42 43 44 45 46 47 48 49 50

000
ASUS43 KLOT 291706
RWRIL

ILLINOIS REGIONAL WEATHER ROUNDUP
NATIONAL WEATHER SERVICE CHICAGO/ROMEOVILLE IL
1200 PM CDT FRI AUG 29 2014

NOTE: "FAIR" INDICATES FEW OR NO CLOUDS BELOW 12,000 FEET WITH NO
SIGNIFICANT WEATHER AND/OR OBSTRUCTIONS TO VISIBILITY.

* THESE STATIONS ARE NOT UNDER NWS QUALITY CONTROL. THEY ALSO MAY NOT
  REPORT WEATHER SUCH AS PRECIPITATION OR FOG.

ILZ001-002-007-009-015-016-024-291800-
NORTHWEST ILLINOIS

CITY           SKY/WX    TMP DP  RH WIND       PRES   REMARKS
MOLINE         SUNNY     83  72  69 S12G17    29.90F HX  88
STERLING*      PTSUNNY   75  70  83 S7        29.94F
SAVANNA*       MOSUNNY   84  70  63 S10G16    29.91F HX  88
$$

ILZ003-004-008-010-011-017-018-291800-
NORTH CENTRAL ILLINOIS

CITY           SKY/WX    TMP DP  RH WIND       PRES   REMARKS
ROCKFORD       CLOUDY    78  70  76 S16       29.95F HX  80
FREEPORT*      MOSUNNY   78  73  84 S13G18    29.95F HX  80
ROCHELLE*      LGT RAIN  76  70  81 S13G18    29.96S
DE KALB*       PTSUNNY   79  72  77 S15G21    29.98S HX  83
PERU*          CLOUDY    77  71  81 S6        29.96F
$$

ILZ005-006-012>014-019>023-291800-
NORTHEAST ILLINOIS

CITY           SKY/WX    TMP DP  RH WIND       PRES   REMARKS
CHICAGO-OHARE  CLOUDY    82  68  62 S9        29.96F HX  85
CHICAGO-MIDWAY PTSUNNY   84  72  67 S12       29.97F HX  89
AURORA         PTSUNNY   80  71  74 S10       29.98S HX  84
LANSING*       PTSUNNY   79  70  74 S9        30.00S HX  81
JOLIET*        CLOUDY    81  71  71 S10       29.98F HX  85
WAUKEGAN       MOSUNNY   79  70  74 E8        29.96F HX  82
DUPAGE AIRPORT PTSUNNY   83  72  69 S13G22    29.97F HX  88
KANKAKEE*      CLOUDY    80  74  80 S12       30.00F HX  85
WHEELING       MOSUNNY   84  70  62 S14       29.97F HX  88
MORRIS*        PTSUNNY   81  74  79 S8        29.98S HX  85
ROMEOVILLE*    PTSUNNY   80  73  76 S14       29.98F HX  85
NORTHERLY ISL    N/A     83  69  62 S9          N/A  HX  86
$$

LMZ740>746-291800-
SOUTHERN LAKE MICHIGAN

STATION/POSITION SKY/WX   TEMP    WIND        PRES    VSBY  WAVE
                          AIR SEA DIR/SP/G                  HT/PER
                          (F)     (DEG/KT/KT) (MB)    (MI)  (FT/S)
SOUTHERN BUOY              70 69  180/ 12/ 14 1015.4S         4/ 5
WAUKEGAN HARBOR            76     150/ 11/ 12   N/A
HARRISON CRIB              74     140/ 13/ 13   N/A
BURNHAM HARBOR             82     180/ 12/ 15   N/A
CALUMET HARBOR             80     170/ 11/ 14 1014.2F
MICHIGAN CITY              77     150/ 12/ 15   N/A
MICHIGAN CITY 6N           75 71  170/ 12/ 17   N/A           1/ 2
ST. JOSEPH                 73 70  160/ 12/ 14   N/A           1/ 3
$$

ILZ025>027-034>036-040-047-049-050-058-095>099-291800-
WEST-CENTRAL ILLINOIS

CITY           SKY/WX    TMP DP  RH WIND       PRES   REMARKS
QUINCY         SUNNY     86  68  54 S13       29.92F HX  89
GALESBURG*     PTSUNNY   82  73  74 S8        29.93F HX  86
MACOMB*        SUNNY     83  72  70 S9        29.95F HX  88
JACKSONVILLE*  SUNNY     88  71  57 S8        29.95F HX  93
PITTSFIELD*    SUNNY     87  68  54 S8        29.94F HX  90
$$

ILZ028>032-037-038-041>044-048-051>054-059>061-291800-
CENTRAL ILLINOIS

CITY           SKY/WX    TMP DP  RH WIND       PRES   REMARKS
PONTIAC        CLOUDY    81  73  78 S7        29.98F HX  85
DECATUR        PTSUNNY   83  73  72 SW7       29.98F HX  89
PEORIA         MOSUNNY   82  72  71 S12       29.95F HX  87
LACON*         PTSUNNY   76  71  83 S5        29.94F
LINCOLN*       MOSUNNY   83  73  71 S6        29.94F HX  89
SPRINGFIELD    SUNNY     84  73  69 SW8       29.96F HX  90
TAYLORVILLE    PTSUNNY   81  73  78 SW6       29.97F HX  85
$$

ILZ033-039-045-046-055>057-062-063-291800-
EAST-CENTRAL ILLINOIS

CITY           SKY/WX    TMP DP  RH WIND       PRES   REMARKS
CHAMPAIGN      PTSUNNY   82  74  76 SE9       30.00F HX  88
DANVILLE*      RAIN      78  73  84 SE7       29.98F HX  81
RANTOUL*       CLOUDY    80  72  78 S7        30.01F HX  83
MATTOON        PTSUNNY   83  74  74 S5        29.99F HX  89
PARIS*         MOSUNNY   84  75  75 SE5       30.01F HX  92
$$

ILZ079-100>102-291800-
SOUTHWEST ILLINOIS

CITY           SKY/WX    TMP DP  RH WIND       PRES   REMARKS
ALTON          PTSUNNY   84  72  65 VRB6      29.95F HX  89
BELLEVILLE     SUNNY     86  76  71 VRB5      29.95F HX  96
CAHOKIA*       PTSUNNY   86  73  65 VRB7      29.94F HX  93
SPARTA*        MOSUNNY   84  74  72 SW6       29.98F HX  92
$$

ILZ064>066-069>071-074>076-080>082-084>086-088>090-092>094-291800-
SOUTH-CENTRAL ILLINOIS

CITY           SKY/WX    TMP DP  RH WIND       PRES   REMARKS
CARBONDALE     MOSUNNY   86  73  65 SW13      29.97F HX  93
CAIRO*         MOSUNNY   87  75  66 CALM      29.97F HX  96
EFFINGHAM*     PTSUNNY   85  70  61 S3        29.99F HX  90
MARION         MOSUNNY   88  73  62 S9        29.99F HX  96
MT. VERNON     MOSUNNY   88  73  62 S8        29.99F HX  96
CENTRALIA*     SUNNY     84  73  70 S7        29.98F HX  91
SALEM*         MOSUNNY   87  76  71 S6        29.98F HX  97
METROPOLIS*    SUNNY     88  73  61 S3        29.98F HX  95
$$

ILZ067-068-072-073-078-083-087-091-291800-
SOUTHEAST ILLINOIS

CITY           SKY/WX    TMP DP  RH WIND       PRES   REMARKS
LAWRENCEVILLE  MOSUNNY   87  76  69 SE7       29.99F HX  97
FLORA*         SUNNY     85  73  68 SE6       29.99S HX  92
FAIRFIELD*     SUNNY     88  79  74 S7        29.98F HX 102
HARRISBURG*    SUNNY     87  71  58 SW12      29.99F HX  92
ROBINSON*      MOSUNNY   88  76  67 S7        30.01S HX  98
CARMI*         MOSUNNY   89  76  64 S6        29.98F HX 100
$$

ABBREVIATIONS USED IN REMARKS
   TC - TEMPERATURE IN CELSIUS
  WCI - WIND CHILL INDEX
   HX - HEAT INDEX
  VSB - VISIBILITY
$$



USA.gov is the U.S. government's official web portal to all federal, state and local government web resources and services.